Weather History for Tyler, TX

Change the Weather History Date:

Saturday, December 21, 2013

  Actual Average Record
Temperature  
Mean Temperature 56 °F 47 °F  
Max Temperature 72 °F 57 °F 82 °F (2010)
Min Temperature 40 °F 38 °F 16 °F (1924)
Degree Days  
Heating Degree Days 9 18  
Month to date heating degree days 354 346  
Since 1 July heating degree days 744 720  
Cooling Degree Days 0 0  
Month to date cooling degree days 10 0  
Year to date cooling degree days 2777 2411  
Growing Degree Days 6 (Base 50)    
Moisture  
Dew Point 50 °F    
Average Humidity 92    
Maximum Humidity 100    
Minimum Humidity 84    
Precipitation  
Precipitation 1.45 in 0.14 in 2.75 in (1991)
Month to date precipitation 3.02 2.85  
Year to date precipitation 42.03 44.40  
Snow  
Snow 0.00 in - - ()
Month to date snowfall T  
Since 1 July snowfall T  
Snow Depth 0.00 in    
Sea Level Pressure  
Sea Level Pressure 29.68 in    
Wind  
Wind Speed 8 mph (West)    
Max Wind Speed 20 mph    
Max Gust Speed 25 mph    
Visibility 6 miles    
Events Rain , Thunderstorm    
T = Trace of Precipitation, MM = Missing Value Source: NWS Daily Summary

Daily Weather History Graph

Daily Weather History Graph

Search for Another Location

Airport:

Trip Planner

Search our weather history database for the weather conditions in past years. The results will help you decide how hot, cold, wet, or windy it might be!

Date:

Astronomy

Dec. 21, 2013 Rise Set
Actual Time 7:19 AM CST 5:20 PM CST
Civil Twilight 6:51 AM CST 5:47 PM CST
Nautical Twilight 6:21 AM CST 6:18 PM CST
Astronomical Twilight 5:51 AM CST 6:48 PM CST
Moon 9:25 PM CST 9:57 AM CST
Length of Visible Light 10h 55m
Length of Day
10h 01m
Waning Gibbous, 84% of the Moon is Illuminated
Dec 21
Waning Gibbous
Dec 25
Last Quarter
Jan 1
New
Jan 7
First Quarter
Jan 15
Full

Hourly Weather History & Observations

Time (CST) Temp. Windchill Dew Point Humidity Pressure Visibility Wind Dir Wind Speed Gust Speed Precip Events Conditions
12:12 AM 71.6 °F - 66.2 °F 83% 29.71 in 10.0 mi South 13.8 mph 24.2 mph N/A   Overcast
12:29 AM 71.6 °F - 66.2 °F 83% 29.71 in 10.0 mi South 13.8 mph 25.3 mph N/A   Overcast
12:53 AM 72.0 °F - 66.9 °F 84% 29.68 in 10.0 mi South 16.1 mph 24.2 mph N/A   Overcast
1:05 AM 71.6 °F - 55.4 °F 57% 29.69 in 10.0 mi Variable 4.6 mph 18.4 mph 0.00 in Rain Light Rain
1:53 AM 50.0 °F - 48.0 °F 93% 29.67 in 9.0 mi NNW 9.2 mph 17.3 mph 0.00 in   Overcast
2:33 AM 44.6 °F 38.1 °F 42.8 °F 93% 29.73 in 1.8 mi NNW 13.8 mph 23.0 mph 0.00 in Rain Light Rain
2:53 AM 43.0 °F 37.2 °F 42.1 °F 97% 29.71 in 2.5 mi NNW 10.4 mph - 0.00 in   Overcast
3:02 AM 42.8 °F 37.0 °F 41.0 °F 93% 29.71 in 5.0 mi NW 10.4 mph - N/A   Overcast
3:53 AM 41.0 °F 35.2 °F 39.9 °F 96% 29.71 in 4.0 mi NW 9.2 mph - 0.02 in Rain Light Rain
4:31 AM 41.0 °F 33.1 °F 39.2 °F 93% 29.75 in 7.0 mi WNW 15.0 mph - 0.05 in Rain Rain
4:53 AM 41.0 °F 33.5 °F 39.0 °F 93% 29.70 in 6.0 mi North 13.8 mph - 0.16 in Rain Rain
5:02 AM 41.0 °F - 39.2 °F 93% 29.69 in 8.0 mi Calm Calm - 0.01 in Rain Rain
5:09 AM 42.8 °F 37.0 °F 39.2 °F 87% 29.69 in 8.0 mi NNE 10.4 mph - 0.02 in Rain Rain
5:39 AM 42.8 °F 37.5 °F 42.8 °F 100% 29.67 in 5.0 mi North 9.2 mph - 0.19 in Rain Light Rain
5:53 AM 43.0 °F 41.3 °F 42.1 °F 97% 29.68 in 8.0 mi NNW 3.5 mph - 0.21 in Rain Light Rain
6:34 AM 44.6 °F 39.7 °F 42.8 °F 93% - 10.0 mi ENE 9.2 mph - 0.09 in Rain , Thunderstorm Light Rain
6:46 AM 44.6 °F 38.8 °F 44.6 °F 100% - 10.0 mi ENE 11.5 mph - 0.09 in Rain Light Rain
6:53 AM 45.0 °F 39.7 °F - N/A% - 10.0 mi ENE 10.4 mph - 0.09 in Rain Light Rain
7:53 AM 46.9 °F - 46.9 °F 100% - 9.0 mi ENE 4.6 mph - 0.02 in Rain Light Rain
8:17 AM 46.4 °F 44.3 °F 46.4 °F 100% - 10.0 mi North 4.6 mph - 0.01 in Rain Light Rain
8:42 AM 46.4 °F 42.9 °F 46.4 °F 100% - 10.0 mi ENE 6.9 mph - 0.02 in Thunderstorm Overcast
8:53 AM 48.0 °F - 48.0 °F 100% - 7.0 mi Variable 4.6 mph - 0.04 in Rain , Thunderstorm Light Rain
8:58 AM 48.2 °F - 48.2 °F 100% - 5.0 mi North 4.6 mph - 0.01 in Rain , Thunderstorm Light Rain
9:37 AM 48.2 °F - 48.2 °F 100% - 4.0 mi NW 15.0 mph 21.9 mph 0.08 in Rain Heavy Rain
9:53 AM 46.9 °F - 46.9 °F 100% - 5.0 mi NW 18.4 mph 24.2 mph 0.12 in Rain Rain
10:19 AM 46.4 °F 45.2 °F 46.4 °F 100% 29.67 in 7.0 mi NNW 3.5 mph - 0.05 in Rain Light Rain
10:53 AM 46.9 °F - 46.9 °F 100% 29.65 in 4.0 mi SSW 5.8 mph - 0.15 in Rain Rain
10:59 AM 46.4 °F - 46.4 °F 100% 29.67 in 1.8 mi Calm Calm - 0.08 in Rain , Thunderstorm Heavy Thunderstorms and Rain
11:10 AM 48.2 °F - 48.2 °F 100% 29.64 in 2.0 mi North 9.2 mph - 0.18 in Rain , Thunderstorm Thunderstorms and Rain
11:16 AM 50.0 °F - 50.0 °F 100% 29.66 in 5.0 mi NNW 4.6 mph - 0.19 in Rain Rain
11:53 AM 51.1 °F - 51.1 °F 100% 29.62 in 4.0 mi NNE 4.6 mph - 0.31 in Rain Rain
12:49 PM 53.6 °F - 53.6 °F 100% 29.63 in 2.0 mi NW 9.2 mph - 0.14 in Rain , Thunderstorm Heavy Rain
12:53 PM 53.1 °F - 53.1 °F 100% 29.66 in 1.5 mi West 5.8 mph - 0.19 in Rain , Thunderstorm Heavy Rain
1:04 PM 53.6 °F - 53.6 °F 100% 29.60 in 2.5 mi North 10.4 mph - 0.08 in Rain Heavy Rain
1:13 PM 53.6 °F - 53.6 °F 100% 29.60 in 6.0 mi North 8.1 mph - 0.08 in Rain Light Rain
1:53 PM 54.0 °F - 54.0 °F 100% 29.60 in 10.0 mi NE 4.6 mph - 0.11 in Rain Light Rain
2:32 PM 53.6 °F - 53.6 °F 100% 29.58 in 10.0 mi ENE 6.9 mph - 0.03 in Rain Light Rain
2:53 PM 55.0 °F - 55.0 °F 100% 29.57 in 10.0 mi East 6.9 mph - 0.03 in Rain Light Rain
3:53 PM 55.9 °F - 55.9 °F 100% 29.59 in 10.0 mi SSE 8.1 mph - 0.00 in   Clear
4:00 PM 55.4 °F - 55.4 °F 100% 29.60 in 10.0 mi SSE 8.1 mph - N/A   Scattered Clouds
4:09 PM 55.4 °F - 55.4 °F 100% 29.61 in 10.0 mi SSE 8.1 mph - N/A   Mostly Cloudy
4:53 PM 55.9 °F - 55.9 °F 100% 29.63 in 10.0 mi SSW 5.8 mph - N/A   Overcast
5:53 PM 55.0 °F - 55.0 °F 100% 29.66 in 10.0 mi SW 5.8 mph - N/A   Overcast
6:34 PM 55.4 °F - 55.4 °F 100% 29.69 in 10.0 mi SSW 5.8 mph - N/A   Overcast
6:53 PM 54.0 °F - 54.0 °F 100% 29.70 in 10.0 mi Calm Calm - N/A   Mostly Cloudy
7:25 PM 53.6 °F - 53.6 °F 100% 29.72 in 2.0 mi South 5.8 mph - N/A   Overcast
7:29 PM 53.6 °F - 53.6 °F 100% 29.72 in 0.8 mi SSE 5.8 mph - N/A   Overcast
7:50 PM 53.6 °F - 53.6 °F 100% 29.73 in 2.0 mi South 8.1 mph - N/A   Overcast
7:51 PM 54.0 °F - 53.1 °F 97% 29.72 in 2.0 mi South 8.1 mph - N/A   Overcast
8:00 PM 53.6 °F - 53.6 °F 100% 29.73 in 0.8 mi South 8.1 mph - N/A   Mist
8:17 PM 53.6 °F - 53.6 °F 100% 29.74 in 1.2 mi South 5.8 mph - N/A   Overcast
8:35 PM 53.6 °F - 53.6 °F 100% 29.75 in 0.8 mi South 11.5 mph - N/A   Mist
8:53 PM 54.0 °F - 53.1 °F 97% 29.75 in 0.8 mi South 5.8 mph - N/A   Mist
9:00 PM 53.6 °F - 53.6 °F 100% 29.75 in 2.0 mi South 9.2 mph - N/A   Overcast
9:08 PM 53.6 °F - 53.6 °F 100% 29.76 in 7.0 mi South 10.4 mph - N/A   Overcast
9:53 PM 53.1 °F - 53.1 °F 100% 29.76 in 10.0 mi South 6.9 mph - N/A   Overcast
10:53 PM 53.1 °F - 52.0 °F 96% 29.78 in 10.0 mi SSW 6.9 mph - N/A   Overcast
11:53 PM 53.1 °F - 51.1 °F 93% 29.79 in 10.0 mi South 13.8 mph - N/A   Overcast